{"data":{"norad_id":63433,"epoch":"2026-09-20T10:07:20.787168Z","epoch_age_seconds":165585,"freshness":"FRESH","line1":"1 63433U 25069A   26263.42176837  .00000771  00000+0  33959-4 0  9995","line2":"2 63433  53.1582 308.3992 0001354  55.9627 304.1504 15.34400309 83351","mean_motion":15.34400309,"eccentricity":0.0001354,"inclination_deg":53.1582,"raan_deg":308.3992,"arg_perigee_deg":55.9627,"mean_anomaly_deg":304.1504,"bstar":3.3959e-5,"rev_number":8335,"period_min":93.847739182122,"perigee_km":461.77607214997,"apogee_km":463.62857143831,"semimajor_km":6840.8393217941,"source":"CELESTRAK","updated_at":"2026-09-21T09:00:34.983704Z"}}